Time,TemperatureF,DewpointF,PressureIn,WindDirection,WindDirectionDegrees,WindSpeedMPH,WindSpeedGustMPH,Humidity,HourlyPrecipIn,Conditions,Clouds,dailyrainin,SolarRadiationWatts/m^2,SoftwareType,DateUTC
2013-10-24 00:00:00,42.3,39.0,29.77,WSW,258,0.0,5.0,88,0.02,,---,0.02,0.00,VWS V14.01,2013-10-24 04:00:00,
2013-10-24 00:01:00,41.0,38.6,29.77,West,265,0.0,3.0,91,0.02,,---,0.03,0.00,VWS V14.01,2013-10-24 04:01:00,
2013-10-24 00:06:00,41.0,39.7,29.78,West,273,3.0,5.0,95,0.01,,---,0.00,0.00,VWS V14.01,2013-10-24 04:06:00,
2013-10-24 00:11:00,41.0,38.3,29.78,NW,315,2.0,5.0,90,0.01,,---,0.00,0.00,VWS V14.01,2013-10-24 04:11:00,
2013-10-24 00:16:00,40.9,38.2,29.77,NW,315,0.0,5.0,90,0.01,,---,0.00,0.00,VWS V14.01,2013-10-24 04:16:00,
2013-10-24 00:21:00,40.9,38.2,29.77,WNW,294,4.0,5.0,90,0.01,,---,0.00,0.00,VWS V14.01,2013-10-24 04:21:00,
2013-10-24 00:26:00,40.8,37.8,29.78,WNW,286,0.0,5.0,89,0.01,,---,0.00,0.00,VWS V14.01,2013-10-24 04:26:00,
2013-10-24 00:30:00,41.5,39.1,29.77,WSW,258,0.0,0.0,91,0.03,,---,0.03,0.00,VWS V14.01,2013-10-24 04:30:00,
2013-10-24 00:31:00,40.6,37.3,29.78,West,278,0.0,1.0,88,0.00,,---,0.00,0.00,VWS V14.01,2013-10-24 04:31:00,
2013-10-24 00:36:00,40.4,37.4,29.78,West,278,0.0,1.0,89,0.00,,---,0.00,0.00,VWS V14.01,2013-10-24 04:36:00,
2013-10-24 00:41:00,40.1,37.1,29.78,West,278,0.0,1.0,89,0.00,,---,0.00,0.00,VWS V14.01,2013-10-24 04:41:00,
2013-10-24 00:46:00,39.8,36.8,29.78,West,278,0.0,1.0,89,0.00,,---,0.00,0.00,VWS V14.01,2013-10-24 04:46:00,
2013-10-24 00:51:00,39.5,36.5,29.78,West,278,0.0,1.0,89,0.00,,---,0.00,0.00,VWS V14.01,2013-10-24 04:51:00,
2013-10-24 00:56:00,39.3,36.3,29.78,West,278,0.0,1.0,89,0.00,,---,0.00,0.00,VWS V14.01,2013-10-24 04:56:00,
2013-10-24 01:00:00,41.0,38.6,29.77,West,265,0.0,3.0,91,0.02,,---,0.03,0.00,VWS V14.01,2013-10-24 05:00:00,
2013-10-24 01:01:00,38.8,35.8,29.78,West,278,0.0,0.0,89,0.00,,---,0.00,0.00,VWS V14.01,2013-10-24 05:01:00,
2013-10-24 01:06:00,38.4,35.7,29.78,West,278,0.0,0.0,90,0.00,,---,0.00,0.00,VWS V14.01,2013-10-24 05:06:00,
2013-10-24 01:11:00,38.0,35.6,29.78,West,278,0.0,0.0,91,0.00,,---,0.00,0.00,VWS V14.01,2013-10-24 05:11:00,
2013-10-24 01:16:00,37.6,35.2,29.79,West,278,0.0,0.0,91,0.00,,---,0.00,0.00,VWS V14.01,2013-10-24 05:16:00,
2013-10-24 01:21:00,37.4,35.3,29.79,West,278,0.0,0.0,92,0.00,,---,0.00,0.00,VWS V14.01,2013-10-24 05:21:00,
2013-10-24 01:26:00,37.1,35.0,29.79,West,278,0.0,0.0,92,0.00,,---,0.00,0.00,VWS V14.01,2013-10-24 05:26:00,
2013-10-24 01:30:00,40.6,37.3,29.78,West,278,1.0,5.0,88,0.01,,---,0.00,0.00,VWS V14.01,2013-10-24 05:30:00,
2013-10-24 01:31:00,36.9,34.8,29.79,West,278,0.0,0.0,92,0.00,,---,0.00,0.00,VWS V14.01,2013-10-24 05:31:00,
2013-10-24 01:36:00,36.8,35.0,29.79,West,278,0.0,0.0,93,0.00,,---,0.00,0.00,VWS V14.01,2013-10-24 05:36:00,
2013-10-24 01:41:00,36.6,34.8,29.79,West,278,0.0,0.0,93,0.00,,---,0.00,0.00,VWS V14.01,2013-10-24 05:41:00,
2013-10-24 01:46:00,36.5,34.7,29.79,West,278,0.0,0.0,93,0.00,,---,0.00,0.00,VWS V14.01,2013-10-24 05:46:00,
2013-10-24 01:51:00,36.3,34.5,29.79,West,278,0.0,0.0,93,0.00,,---,0.00,0.00,VWS V14.01,2013-10-24 05:51:00,
2013-10-24 01:56:00,36.2,34.4,29.79,West,278,0.0,0.0,93,0.00,,---,0.00,0.00,VWS V14.01,2013-10-24 05:56:00,
2013-10-24 02:00:00,38.9,36.2,29.78,West,278,0.0,1.0,90,0.00,,---,0.00,0.00,VWS V14.01,2013-10-24 06:00:00,
2013-10-24 02:01:00,36.0,34.2,29.79,West,278,0.0,0.0,93,0.00,,---,0.00,0.00,VWS V14.01,2013-10-24 06:01:00,
2013-10-24 02:06:00,35.7,33.9,29.79,West,278,0.0,0.0,93,0.00,,---,0.00,0.00,VWS V14.01,2013-10-24 06:06:00,
2013-10-24 02:11:00,35.5,34.0,29.80,West,278,0.0,0.0,94,0.00,,---,0.00,0.00,VWS V14.01,2013-10-24 06:11:00,
2013-10-24 02:16:00,35.4,33.8,29.80,West,278,0.0,0.0,94,0.00,,---,0.00,0.00,VWS V14.01,2013-10-24 06:16:00,
2013-10-24 02:21:00,35.2,33.7,29.80,West,278,0.0,0.0,94,0.00,,---,0.00,0.00,VWS V14.01,2013-10-24 06:21:00,
2013-10-24 02:26:00,35.2,33.7,29.80,West,278,0.0,0.0,94,0.00,,---,0.00,0.00,VWS V14.01,2013-10-24 06:26:00,
2013-10-24 02:30:00,37.0,34.9,29.79,West,278,0.0,1.0,92,0.00,,---,0.00,0.00,VWS V14.01,2013-10-24 06:30:00,
2013-10-24 02:31:00,35.1,33.5,29.80,West,278,0.0,0.0,94,0.00,,---,0.00,0.00,VWS V14.01,2013-10-24 06:31:00,
2013-10-24 02:36:00,35.0,33.5,29.80,West,278,0.0,0.0,94,0.00,,---,0.00,0.00,VWS V14.01,2013-10-24 06:36:00,
2013-10-24 02:41:00,34.9,33.3,29.80,West,278,0.0,0.0,94,0.00,,---,0.00,0.00,VWS V14.01,2013-10-24 06:41:00,
2013-10-24 02:46:00,34.7,33.2,29.80,West,278,0.0,0.0,94,0.00,,---,0.00,0.00,VWS V14.01,2013-10-24 06:46:00,
2013-10-24 02:51:00,34.6,33.0,29.80,West,278,0.0,0.0,94,0.00,,---,0.00,0.00,VWS V14.01,2013-10-24 06:51:00,
2013-10-24 02:56:00,34.5,33.0,29.80,West,278,0.0,0.0,94,0.00,,---,0.00,0.00,VWS V14.01,2013-10-24 06:56:00,
2013-10-24 03:00:00,36.0,34.2,29.79,West,278,0.0,0.0,93,0.00,,---,0.00,0.00,VWS V14.01,2013-10-24 07:00:00,
2013-10-24 03:01:00,34.3,32.8,29.80,West,278,0.0,0.0,94,0.00,,---,0.00,0.00,VWS V14.01,2013-10-24 07:01:00,
2013-10-24 03:06:00,34.0,32.5,29.81,West,278,0.0,0.0,94,0.00,,---,0.00,0.00,VWS V14.01,2013-10-24 07:06:00,
2013-10-24 03:11:00,33.9,32.6,29.81,West,278,0.0,0.0,95,0.00,,---,0.00,0.00,VWS V14.01,2013-10-24 07:11:00,
2013-10-24 03:16:00,33.9,32.6,29.81,West,278,0.0,0.0,95,0.00,,---,0.00,0.00,VWS V14.01,2013-10-24 07:16:00,
2013-10-24 03:21:00,33.9,32.6,29.80,West,278,0.0,0.0,95,0.00,,---,0.00,0.00,VWS V14.01,2013-10-24 07:21:00,
2013-10-24 03:26:00,33.8,32.5,29.81,West,278,0.0,0.0,95,0.00,,---,0.00,0.00,VWS V14.01,2013-10-24 07:26:00,
2013-10-24 03:30:00,35.1,33.5,29.80,West,278,0.0,0.0,94,0.00,,---,0.00,0.00,VWS V14.01,2013-10-24 07:30:00,
2013-10-24 03:31:00,33.8,32.5,29.81,West,278,0.0,0.0,95,0.00,,---,0.00,0.00,VWS V14.01,2013-10-24 07:31:00,
2013-10-24 03:36:00,33.7,32.4,29.81,West,278,0.0,0.0,95,0.00,,---,0.00,0.00,VWS V14.01,2013-10-24 07:36:00,
2013-10-24 03:41:00,33.8,32.5,29.81,West,278,0.0,0.0,95,0.00,,---,0.00,0.00,VWS V14.01,2013-10-24 07:41:00,
2013-10-24 03:46:00,33.9,32.6,29.81,West,278,0.0,0.0,95,0.00,,---,0.00,0.00,VWS V14.01,2013-10-24 07:46:00,
2013-10-24 03:51:00,34.1,32.8,29.81,West,278,0.0,0.0,95,0.00,,---,0.00,0.00,VWS V14.01,2013-10-24 07:51:00,
2013-10-24 03:56:00,34.3,33.3,29.81,West,278,0.0,3.0,96,0.00,,---,0.00,0.00,VWS V14.01,2013-10-24 07:56:00,
2013-10-24 04:00:00,34.3,32.8,29.80,West,278,0.0,0.0,94,0.00,,---,0.00,0.00,VWS V14.01,2013-10-24 08:00:00,
2013-10-24 04:01:00,34.5,33.5,29.81,West,278,0.0,0.0,96,0.00,,---,0.00,0.00,VWS V14.01,2013-10-24 08:01:00,
2013-10-24 04:06:00,34.7,33.7,29.82,West,278,0.0,0.0,96,0.00,,---,0.00,0.00,VWS V14.01,2013-10-24 08:06:00,
2013-10-24 04:11:00,34.9,33.9,29.82,West,278,0.0,0.0,96,0.00,,---,0.00,0.00,VWS V14.01,2013-10-24 08:11:00,
2013-10-24 04:16:00,35.2,34.2,29.82,West,278,0.0,0.0,96,0.00,,---,0.00,0.00,VWS V14.01,2013-10-24 08:16:00,
2013-10-24 04:21:00,35.4,34.4,29.82,West,278,0.0,0.0,96,0.00,,---,0.00,0.00,VWS V14.01,2013-10-24 08:21:00,
2013-10-24 04:26:00,35.7,34.7,29.82,ESE,107,0.0,5.0,96,0.00,,---,0.00,0.00,VWS V14.01,2013-10-24 08:26:00,
2013-10-24 04:30:00,33.8,32.5,29.81,West,278,0.0,0.0,95,0.00,,---,0.00,0.00,VWS V14.01,2013-10-24 08:30:00,
2013-10-24 04:31:00,35.9,34.6,29.82,ESE,107,0.0,0.0,95,0.00,,---,0.00,0.00,VWS V14.01,2013-10-24 08:31:00,
2013-10-24 04:36:00,36.0,34.7,29.82,ESE,107,0.0,2.0,95,0.00,,---,0.00,0.00,VWS V14.01,2013-10-24 08:36:00,
2013-10-24 04:41:00,36.2,34.9,29.83,ESE,107,0.0,2.0,95,0.00,,---,0.00,0.00,VWS V14.01,2013-10-24 08:41:00,
2013-10-24 04:46:00,36.2,34.9,29.83,ESE,107,0.0,2.0,95,0.00,,---,0.00,0.00,VWS V14.01,2013-10-24 08:46:00,
2013-10-24 04:51:00,36.2,34.9,29.83,ESE,107,0.0,2.0,95,0.00,,---,0.00,0.00,VWS V14.01,2013-10-24 08:51:00,
2013-10-24 04:56:00,36.0,34.4,29.83,ESE,107,0.0,2.0,94,0.00,,---,0.00,0.00,VWS V14.01,2013-10-24 08:56:00,
2013-10-24 05:00:00,34.5,33.5,29.81,West,278,0.0,3.0,96,0.00,,---,0.00,0.00,VWS V14.01,2013-10-24 09:00:00,
2013-10-24 05:01:00,35.8,34.2,29.83,ESE,107,0.0,0.0,94,0.00,,---,0.00,0.00,VWS V14.01,2013-10-24 09:01:00,
2013-10-24 05:06:00,35.5,34.0,29.83,ESE,107,0.0,0.0,94,0.00,,---,0.00,0.00,VWS V14.01,2013-10-24 09:06:00,
2013-10-24 05:11:00,35.2,33.7,29.84,ESE,107,0.0,0.0,94,0.00,,---,0.00,0.00,VWS V14.01,2013-10-24 09:11:00,
2013-10-24 05:16:00,34.9,33.3,29.84,ESE,107,0.0,0.0,94,0.00,,---,0.00,0.00,VWS V14.01,2013-10-24 09:16:00,
2013-10-24 05:21:00,34.6,33.0,29.84,ESE,107,0.0,0.0,94,0.00,,---,0.00,0.00,VWS V14.01,2013-10-24 09:21:00,
2013-10-24 05:26:00,34.4,32.9,29.84,ESE,107,0.0,0.0,94,0.00,,---,0.00,0.00,VWS V14.01,2013-10-24 09:26:00,
2013-10-24 05:30:00,35.9,34.9,29.82,ESE,107,0.0,5.0,96,0.00,,---,0.00,0.00,VWS V14.01,2013-10-24 09:30:00,
2013-10-24 05:31:00,34.1,32.6,29.84,ESE,107,0.0,0.0,94,0.00,,---,0.00,0.00,VWS V14.01,2013-10-24 09:31:00,
2013-10-24 05:36:00,33.9,32.4,29.84,ESE,107,0.0,0.0,94,0.00,,---,0.00,0.00,VWS V14.01,2013-10-24 09:36:00,
2013-10-24 05:41:00,33.7,32.2,29.84,ESE,107,0.0,0.0,94,0.00,,---,0.00,0.00,VWS V14.01,2013-10-24 09:41:00,
2013-10-24 05:46:00,33.4,31.9,29.84,ESE,107,0.0,0.0,94,0.00,,---,0.00,0.00,VWS V14.01,2013-10-24 09:46:00,
2013-10-24 05:51:00,33.1,31.6,29.84,ESE,107,0.0,0.0,94,0.00,,---,0.00,0.00,VWS V14.01,2013-10-24 09:51:00,
2013-10-24 05:56:00,32.8,31.3,29.84,ESE,107,0.0,0.0,94,0.00,,---,0.00,0.00,VWS V14.01,2013-10-24 09:56:00,
2013-10-24 06:00:00,35.8,34.2,29.83,ESE,107,0.0,2.0,94,0.00,,---,0.00,0.00,VWS V14.01,2013-10-24 10:00:00,
2013-10-24 06:01:00,32.6,31.1,29.84,ESE,107,0.0,0.0,94,0.00,,---,0.00,0.00,VWS V14.01,2013-10-24 10:01:00,
2013-10-24 06:06:00,32.4,30.9,29.84,ESE,107,0.0,0.0,94,0.00,,---,0.00,0.00,VWS V14.01,2013-10-24 10:06:00,
2013-10-24 06:11:00,32.2,30.7,29.85,ESE,107,0.0,1.0,94,0.00,,---,0.00,0.00,VWS V14.01,2013-10-24 10:11:00,
2013-10-24 06:16:00,32.0,30.7,29.85,ESE,107,0.0,1.0,95,0.00,,---,0.00,0.00,VWS V14.01,2013-10-24 10:16:00,
2013-10-24 06:21:00,31.8,30.5,29.85,ESE,107,0.0,1.0,95,0.00,,---,0.00,0.00,VWS V14.01,2013-10-24 10:21:00,
2013-10-24 06:26:00,31.7,30.4,29.85,ESE,107,0.0,1.0,95,0.00,,---,0.00,0.00,VWS V14.01,2013-10-24 10:26:00,
2013-10-24 06:30:00,34.2,32.7,29.84,ESE,107,0.0,0.0,94,0.00,,---,0.00,0.00,VWS V14.01,2013-10-24 10:30:00,
2013-10-24 06:31:00,31.5,30.2,29.85,ESE,107,0.0,0.0,95,0.00,,---,0.00,0.00,VWS V14.01,2013-10-24 10:31:00,
2013-10-24 06:36:00,31.5,30.2,29.85,ESE,107,0.0,0.0,95,0.00,,---,0.00,0.00,VWS V14.01,2013-10-24 10:36:00,
2013-10-24 06:41:00,31.3,30.0,29.86,ESE,107,0.0,0.0,95,0.00,,---,0.00,0.00,VWS V14.01,2013-10-24 10:41:00,
2013-10-24 06:46:00,31.2,29.9,29.86,ESE,107,0.0,0.0,95,0.00,,---,0.00,0.00,VWS V14.01,2013-10-24 10:46:00,
2013-10-24 06:51:00,31.0,29.7,29.86,ESE,107,0.0,0.0,95,0.00,,---,0.00,0.00,VWS V14.01,2013-10-24 10:51:00,
2013-10-24 06:56:00,30.9,29.6,29.86,ESE,107,0.0,0.0,95,0.00,,---,0.00,0.00,VWS V14.01,2013-10-24 10:56:00,
2013-10-24 07:00:00,32.6,31.1,29.84,ESE,107,0.0,0.0,94,0.00,,---,0.00,0.00,VWS V14.01,2013-10-24 11:00:00,
2013-10-24 07:01:00,30.7,29.4,29.87,ESE,107,0.0,0.0,95,0.00,,---,0.00,0.00,VWS V14.01,2013-10-24 11:01:00,
2013-10-24 07:06:00,30.7,29.4,29.87,ESE,107,0.0,0.0,95,0.00,,---,0.00,0.00,VWS V14.01,2013-10-24 11:06:00,
2013-10-24 07:11:00,31.0,30.0,29.87,ESE,107,0.0,0.0,96,0.00,,---,0.00,0.00,VWS V14.01,2013-10-24 11:11:00,
2013-10-24 07:16:00,31.0,30.0,29.87,ESE,107,0.0,0.0,96,0.00,,---,0.00,0.00,VWS V14.01,2013-10-24 11:16:00,
2013-10-24 07:21:00,31.0,30.0,29.87,ESE,107,0.0,0.0,96,0.00,,---,0.00,5.00,VWS V14.01,2013-10-24 11:21:00,
2013-10-24 07:26:00,30.9,29.9,29.87,ESE,107,0.0,0.0,96,0.00,,---,0.00,5.00,VWS V14.01,2013-10-24 11:26:00,
2013-10-24 07:30:00,31.5,30.2,29.85,ESE,107,0.0,1.0,95,0.00,,---,0.00,0.00,VWS V14.01,2013-10-24 11:30:00,
2013-10-24 07:31:00,30.8,29.8,29.87,ESE,107,0.0,0.0,96,0.00,,---,0.00,7.00,VWS V14.01,2013-10-24 11:31:00,
2013-10-24 07:36:00,30.7,29.7,29.87,ESE,107,0.0,0.0,96,0.00,,---,0.00,9.00,VWS V14.01,2013-10-24 11:36:00,
2013-10-24 07:41:00,30.6,29.3,29.87,ESE,107,0.0,0.0,95,0.00,,---,0.00,11.00,VWS V14.01,2013-10-24 11:41:00,
2013-10-24 07:46:00,30.5,29.2,29.88,ESE,107,0.0,0.0,95,0.00,,---,0.00,12.00,VWS V14.01,2013-10-24 11:46:00,
2013-10-24 07:51:00,30.5,29.5,29.88,ESE,107,0.0,0.0,96,0.00,,---,0.00,42.00,VWS V14.01,2013-10-24 11:51:00,
2013-10-24 07:56:00,30.8,29.8,29.88,ESE,107,0.0,0.0,96,0.00,,---,0.00,60.00,VWS V14.01,2013-10-24 11:56:00,
2013-10-24 08:00:00,30.7,29.4,29.87,ESE,107,0.0,0.0,95,0.00,,---,0.00,0.00,VWS V14.01,2013-10-24 12:00:00,
2013-10-24 08:01:00,31.3,30.3,29.88,ESE,107,0.0,0.0,96,0.00,,---,0.00,72.00,VWS V14.01,2013-10-24 12:01:00,
2013-10-24 08:06:00,31.8,30.8,29.88,ESE,107,0.0,0.0,96,0.00,,---,0.00,84.00,VWS V14.01,2013-10-24 12:06:00,
2013-10-24 08:11:00,32.3,31.3,29.89,ESE,107,0.0,0.0,96,0.00,,---,0.00,102.00,VWS V14.01,2013-10-24 12:11:00,
2013-10-24 08:16:00,32.8,31.8,29.89,ESE,107,0.0,0.0,96,0.00,,---,0.00,111.00,VWS V14.01,2013-10-24 12:16:00,
2013-10-24 08:21:00,33.2,32.2,29.89,ESE,107,0.0,0.0,96,0.00,,---,0.00,123.00,VWS V14.01,2013-10-24 12:21:00,
2013-10-24 08:26:00,33.6,32.6,29.89,ESE,107,0.0,0.0,96,0.00,,---,0.00,137.00,VWS V14.01,2013-10-24 12:26:00,
2013-10-24 08:30:00,30.8,29.8,29.87,ESE,107,0.0,0.0,96,0.00,,---,0.00,7.00,VWS V14.01,2013-10-24 12:30:00,
2013-10-24 08:31:00,33.9,32.9,29.89,ESE,107,0.0,0.0,96,0.00,,---,0.00,153.00,VWS V14.01,2013-10-24 12:31:00,
2013-10-24 08:36:00,34.2,32.9,29.90,ESE,107,0.0,0.0,95,0.00,,---,0.00,171.00,VWS V14.01,2013-10-24 12:36:00,
2013-10-24 08:41:00,34.8,33.5,29.90,ESE,107,0.0,2.0,95,0.00,,---,0.00,186.00,VWS V14.01,2013-10-24 12:41:00,
2013-10-24 08:46:00,35.4,34.1,29.90,West,272,3.0,3.0,95,0.00,,---,0.00,202.00,VWS V14.01,2013-10-24 12:46:00,
2013-10-24 08:51:00,35.8,34.0,29.89,WNW,297,0.0,3.0,93,0.00,,---,0.00,220.00,VWS V14.01,2013-10-24 12:51:00,
2013-10-24 08:56:00,36.4,34.3,29.90,WNW,297,0.0,3.0,92,0.00,,---,0.00,232.00,VWS V14.01,2013-10-24 12:56:00,
2013-10-24 09:00:00,31.2,30.2,29.88,ESE,107,0.0,0.0,96,0.00,,---,0.00,72.00,VWS V14.01,2013-10-24 13:00:00,
2013-10-24 09:01:00,36.8,34.2,29.90,WNW,297,0.0,1.0,90,0.00,,---,0.00,248.00,VWS V14.01,2013-10-24 13:01:00,
2013-10-24 09:06:00,37.1,34.2,29.90,NW,304,0.0,1.0,89,0.00,,---,0.00,264.00,VWS V14.01,2013-10-24 13:06:00,
2013-10-24 09:11:00,37.3,34.4,29.90,East,91,0.0,3.0,89,0.00,,---,0.00,276.00,VWS V14.01,2013-10-24 13:11:00,
2013-10-24 09:16:00,37.5,34.3,29.90,West,276,0.0,3.0,88,0.00,,---,0.00,290.00,VWS V14.01,2013-10-24 13:16:00,
2013-10-24 09:21:00,37.7,34.5,29.90,West,276,0.0,3.0,88,0.00,,---,0.00,311.00,VWS V14.01,2013-10-24 13:21:00,
2013-10-24 09:30:00,33.9,32.9,29.89,ESE,107,0.0,0.0,96,0.00,,---,0.00,153.00,VWS V14.01,2013-10-24 13:30:00,
2013-10-24 10:00:00,36.8,34.2,29.90,WNW,297,1.0,3.0,90,0.00,,---,0.00,248.00,VWS V14.01,2013-10-24 14:00:00,
2013-10-24 10:24:00,38.0,35.0,29.90,SSW,208,1.0,3.0,89,0.00,,---,0.00,323.00,VWS V14.01,2013-10-24 14:24:00,
2013-10-24 10:30:00,42.3,35.9,29.90,SW,232,0.0,4.0,78,0.00,,---,0.00,466.00,VWS V14.01,2013-10-24 14:30:00,
2013-10-24 10:35:00,42.9,36.2,29.90,NE,38,0.0,0.0,77,0.00,,---,0.00,510.00,VWS V14.01,2013-10-24 14:35:00,
2013-10-24 10:40:00,43.4,36.3,29.90,ENE,65,0.0,3.0,76,0.00,,---,0.00,121.00,VWS V14.01,2013-10-24 14:40:00,
2013-10-24 10:46:00,43.6,36.5,29.90,South,178,1.0,3.0,76,0.00,,---,0.00,172.00,VWS V14.01,2013-10-24 14:46:00,
2013-10-24 10:51:00,44.0,36.6,29.90,WSW,256,1.0,4.0,75,0.00,,---,0.00,608.00,VWS V14.01,2013-10-24 14:51:00,
2013-10-24 11:28:00,45.0,33.2,29.89,WNW,292,3.0,4.0,63,0.00,,---,0.00,163.00,VWS V14.01,2013-10-24 15:28:00,
2013-10-24 11:30:00,42.8,36.8,29.90,NE,38,0.0,4.0,79,0.00,,---,0.00,468.00,VWS V14.01,2013-10-24 15:30:00,
2013-10-24 12:38:00,48.4,28.6,29.87,SW,221,6.0,6.0,46,0.00,,---,0.00,176.00,VWS V14.01,2013-10-24 16:38:00,
2013-10-24 12:43:00,48.2,27.3,29.87,SW,234,4.0,14.0,44,0.00,,---,0.00,272.00,VWS V14.01,2013-10-24 16:43:00,
2013-10-24 12:48:00,48.1,28.3,29.86,West,277,3.0,14.0,46,0.00,,---,0.00,93.00,VWS V14.01,2013-10-24 16:48:00,
2013-10-24 12:53:00,48.1,27.8,29.86,WSW,242,1.0,14.0,45,0.00,,---,0.00,125.00,VWS V14.01,2013-10-24 16:53:00,
2013-10-24 12:58:00,48.6,28.2,29.86,ESE,115,3.0,14.0,45,0.00,,---,0.00,473.00,VWS V14.01,2013-10-24 16:58:00,
2013-10-24 13:00:00,48.9,29.0,29.86,NW,312,1.0,14.0,46,0.00,,---,0.00,274.00,VWS V15.00,2013-10-24 17:00:00,
2013-10-24 13:03:00,49.2,28.2,29.86,SW,227,4.0,8.0,44,0.00,,---,0.00,185.00,VWS V14.01,2013-10-24 17:03:00,
2013-10-24 13:08:00,49.2,27.1,29.86,SW,227,4.0,10.0,42,0.00,,---,0.00,561.00,VWS V14.01,2013-10-24 17:08:00,
2013-10-24 13:13:00,49.2,28.2,29.86,WNW,300,1.0,10.0,44,0.00,,---,0.00,432.00,VWS V14.01,2013-10-24 17:13:00,
2013-10-24 13:18:00,49.6,26.9,29.86,WNW,293,7.0,11.0,41,0.00,,---,0.00,223.00,VWS V14.01,2013-10-24 17:18:00,
2013-10-24 13:23:00,49.2,27.1,29.86,West,269,9.0,13.0,42,0.00,,---,0.00,148.00,VWS V14.01,2013-10-24 17:23:00,
2013-10-24 13:28:00,48.5,26.5,29.86,WNW,292,0.0,13.0,42,0.00,,---,0.00,162.00,VWS V14.01,2013-10-24 17:28:00,
2013-10-24 13:30:00,48.2,26.8,29.85,West,267,6.0,13.0,43,0.00,,---,0.00,190.00,VWS V15.00,2013-10-24 17:30:00,
2013-10-24 13:33:00,48.1,26.7,29.85,WNW,292,2.0,9.0,43,0.00,,---,0.00,178.00,VWS V14.01,2013-10-24 17:33:00,
2013-10-24 13:38:00,48.0,27.1,29.85,WNW,286,2.0,12.0,44,0.00,,---,0.00,165.00,VWS V14.01,2013-10-24 17:38:00,
2013-10-24 13:43:00,48.0,27.1,29.85,WNW,303,0.0,12.0,44,0.00,,---,0.00,153.00,VWS V14.01,2013-10-24 17:43:00,
2013-10-24 13:48:00,48.0,27.7,29.85,WSW,257,4.0,12.0,45,0.00,,---,0.00,141.00,VWS V14.01,2013-10-24 17:48:00,
2013-10-24 13:53:00,48.0,27.7,29.85,WSW,254,5.0,12.0,45,0.00,,---,0.00,171.00,VWS V14.01,2013-10-24 17:53:00,
2013-10-24 13:58:00,48.1,27.8,29.85,West,269,1.0,12.0,45,0.00,,---,0.00,214.00,VWS V14.01,2013-10-24 17:58:00,
2013-10-24 14:00:00,48.9,29.0,29.86,NW,312,1.0,14.0,46,0.00,,---,0.00,274.00,VWS V14.01,2013-10-24 18:00:00,
2013-10-24 14:03:00,48.5,28.1,29.85,WNW,289,5.0,8.0,45,0.00,,---,0.00,181.00,VWS V14.01,2013-10-24 18:03:00,
2013-10-24 14:08:00,48.7,28.3,29.85,West,267,0.0,10.0,45,0.00,,---,0.00,204.00,VWS V14.01,2013-10-24 18:08:00,
2013-10-24 14:13:00,48.9,29.0,29.85,WNW,294,10.0,10.0,46,0.00,,---,0.00,192.00,VWS V14.01,2013-10-24 18:13:00,
2013-10-24 14:18:00,49.3,28.9,29.85,WSW,243,5.0,10.0,45,0.00,,---,0.00,223.00,VWS V14.01,2013-10-24 18:18:00,
2013-10-24 14:23:00,49.4,28.4,29.85,WSW,254,7.0,10.0,44,0.00,,---,0.00,141.00,VWS V14.01,2013-10-24 18:23:00,
2013-10-24 14:28:00,48.9,28.5,29.85,West,265,3.0,10.0,45,0.00,,---,0.00,130.00,VWS V14.01,2013-10-24 18:28:00,
2013-10-24 14:30:00,48.2,26.8,29.85,West,267,6.0,13.0,43,0.00,,---,0.00,190.00,VWS V14.01,2013-10-24 18:30:00,
2013-10-24 14:33:00,49.1,29.2,29.85,West,275,5.0,6.0,46,0.00,,---,0.00,251.00,VWS V14.01,2013-10-24 18:33:00,
2013-10-24 14:38:00,49.6,29.7,29.85,WSW,244,5.0,6.0,46,0.00,,---,0.00,172.00,VWS V14.01,2013-10-24 18:38:00,
2013-10-24 14:43:00,49.1,28.7,29.85,WSW,258,0.0,7.0,45,0.00,,---,0.00,127.00,VWS V14.01,2013-10-24 18:43:00,
2013-10-24 14:48:00,48.8,29.0,29.85,West,265,3.0,9.0,46,0.00,,---,0.00,132.00,VWS V14.01,2013-10-24 18:48:00,
2013-10-24 14:53:00,48.6,29.3,29.85,West,273,5.0,9.0,47,0.00,,---,0.00,169.00,VWS V14.01,2013-10-24 18:53:00,
2013-10-24 14:58:00,48.6,29.3,29.85,WSW,251,2.0,9.0,47,0.00,,---,0.00,192.00,VWS V14.01,2013-10-24 18:58:00,
2013-10-24 15:00:00,48.3,29.0,29.85,West,270,2.0,12.0,47,0.00,,---,0.00,181.00,VWS V14.01,2013-10-24 19:00:00,
2013-10-24 15:03:00,48.8,30.0,29.85,WSW,257,1.0,3.0,48,0.00,,---,0.00,271.00,VWS V14.01,2013-10-24 19:03:00,
2013-10-24 15:08:00,50.1,30.1,29.85,WSW,255,2.0,6.0,46,0.00,,---,0.00,531.00,VWS V14.01,2013-10-24 19:08:00,
2013-10-24 15:13:00,51.0,29.3,29.85,West,260,0.0,9.0,43,0.00,,---,0.00,520.00,VWS V14.01,2013-10-24 19:13:00,
2013-10-24 15:18:00,51.4,29.1,29.86,West,267,3.0,9.0,42,0.00,,---,0.00,90.00,VWS V14.01,2013-10-24 19:18:00,
2013-10-24 15:23:00,50.4,28.2,29.86,SW,224,3.0,9.0,42,0.00,,---,0.00,378.00,VWS V14.01,2013-10-24 19:23:00,
2013-10-24 15:28:00,50.2,28.6,29.86,SW,228,4.0,9.0,43,0.00,,---,0.00,385.00,VWS V14.01,2013-10-24 19:28:00,
2013-10-24 15:30:00,48.8,29.5,29.85,SW,219,5.0,10.0,47,0.00,,---,0.00,167.00,VWS V14.01,2013-10-24 19:30:00,
2013-10-24 15:33:00,50.4,28.2,29.86,West,268,2.0,8.0,42,0.00,,---,0.00,387.00,VWS V14.01,2013-10-24 19:33:00,
2013-10-24 15:38:00,50.3,28.1,29.86,WSW,254,6.0,8.0,42,0.00,,---,0.00,127.00,VWS V14.01,2013-10-24 19:38:00,
2013-10-24 15:43:00,49.8,27.6,29.86,West,269,0.0,8.0,42,0.00,,---,0.00,425.00,VWS V14.01,2013-10-24 19:43:00,
2013-10-24 15:48:00,50.0,27.8,29.86,WSW,250,2.0,8.0,42,0.00,,---,0.00,385.00,VWS V14.01,2013-10-24 19:48:00,
2013-10-24 15:53:00,49.9,27.1,29.87,West,272,0.0,10.0,41,0.00,,---,0.00,176.00,VWS V14.01,2013-10-24 19:53:00,
2013-10-24 15:58:00,49.8,27.6,29.87,WSW,248,3.0,10.0,42,0.00,,---,0.00,107.00,VWS V14.01,2013-10-24 19:58:00,
2013-10-24 16:00:00,48.6,29.3,29.85,SSW,200,3.0,9.0,47,0.00,,---,0.00,243.00,VWS V14.01,2013-10-24 20:00:00,
2013-10-24 16:03:00,49.6,27.5,29.87,West,264,2.0,6.0,42,0.00,,---,0.00,100.00,VWS V14.01,2013-10-24 20:03:00,
2013-10-24 16:08:00,49.1,27.0,29.87,WNW,286,6.0,8.0,42,0.00,,---,0.00,90.00,VWS V14.01,2013-10-24 20:08:00,
2013-10-24 16:13:00,48.8,27.3,29.87,West,281,0.0,11.0,43,0.00,,---,0.00,84.00,VWS V14.01,2013-10-24 20:13:00,
2013-10-24 16:18:00,48.5,27.0,29.87,WSW,247,0.0,11.0,43,0.00,,---,0.00,107.00,VWS V14.01,2013-10-24 20:18:00,
2013-10-24 16:23:00,48.5,28.1,29.87,West,266,6.0,11.0,45,0.00,,---,0.00,113.00,VWS V14.01,2013-10-24 20:23:00,
2013-10-24 16:28:00,48.9,27.4,29.87,West,261,6.0,11.0,43,0.00,,---,0.00,283.00,VWS V14.01,2013-10-24 20:28:00,
2013-10-24 16:30:00,50.2,29.1,29.86,WNW,298,0.0,9.0,44,0.00,,---,0.00,381.00,VWS V14.01,2013-10-24 20:30:00,
2013-10-24 16:33:00,49.4,27.9,29.87,WNW,299,12.0,12.0,43,0.00,,---,0.00,262.00,VWS V14.01,2013-10-24 20:33:00,
2013-10-24 16:38:00,49.6,28.0,29.87,NW,307,3.0,12.0,43,0.00,,---,0.00,176.00,VWS V14.01,2013-10-24 20:38:00,
2013-10-24 16:43:00,49.8,27.1,29.87,WNW,290,5.0,12.0,41,0.00,,---,0.00,130.00,VWS V14.01,2013-10-24 20:43:00,
2013-10-24 16:48:00,49.6,26.9,29.87,West,268,0.0,12.0,41,0.00,,---,0.00,58.00,VWS V14.01,2013-10-24 20:48:00,
2013-10-24 16:53:00,49.4,27.3,29.88,WNW,300,3.0,12.0,42,0.00,,---,0.00,47.00,VWS V14.01,2013-10-24 20:53:00,
2013-10-24 16:58:00,49.1,27.0,29.88,WSW,245,2.0,12.0,42,0.00,,---,0.00,39.00,VWS V14.01,2013-10-24 20:58:00,
2013-10-24 17:00:00,49.7,27.6,29.87,West,263,0.0,10.0,42,0.00,,---,0.00,102.00,VWS V14.01,2013-10-24 21:00:00,
2013-10-24 17:03:00,48.9,27.4,29.88,WSW,252,4.0,5.0,43,0.00,,---,0.00,54.00,VWS V14.01,2013-10-24 21:03:00,
2013-10-24 17:08:00,48.8,28.4,29.88,WNW,298,0.0,5.0,45,0.00,,---,0.00,37.00,VWS V14.01,2013-10-24 21:08:00,
2013-10-24 17:13:00,48.6,27.1,29.88,WNW,291,0.0,6.0,43,0.00,,---,0.00,33.00,VWS V14.01,2013-10-24 21:13:00,
2013-10-24 17:18:00,48.4,27.5,29.88,WSW,238,5.0,10.0,44,0.00,,---,0.00,23.00,VWS V14.01,2013-10-24 21:18:00,
2013-10-24 17:23:00,48.3,28.0,29.88,WSW,238,0.0,10.0,45,0.00,,---,0.00,18.00,VWS V14.01,2013-10-24 21:23:00,
2013-10-24 17:28:00,48.1,27.8,29.88,WNW,302,0.0,10.0,45,0.00,,---,0.00,14.00,VWS V14.01,2013-10-24 21:28:00,
2013-10-24 17:30:00,49.2,27.7,29.87,WNW,292,2.0,11.0,43,0.00,,---,0.00,283.00,VWS V14.01,2013-10-24 21:30:00,
2013-10-24 17:33:00,48.1,27.8,29.89,NW,310,0.0,6.0,45,0.00,,---,0.00,12.00,VWS V14.01,2013-10-24 21:33:00,
2013-10-24 17:38:00,48.0,28.2,29.89,NW,310,0.0,6.0,46,0.00,,---,0.00,9.00,VWS V14.01,2013-10-24 21:38:00,
2013-10-24 17:43:00,47.7,28.0,29.89,WSW,256,1.0,6.0,46,0.00,,---,0.00,7.00,VWS V14.01,2013-10-24 21:43:00,
2013-10-24 17:48:00,47.6,27.9,29.89,WNW,296,0.0,6.0,46,0.00,,---,0.00,5.00,VWS V14.01,2013-10-24 21:48:00,
2013-10-24 17:53:00,47.5,27.8,29.89,WSW,246,0.0,6.0,46,0.00,,---,0.00,0.00,VWS V14.01,2013-10-24 21:53:00,
2013-10-24 17:58:00,47.4,28.2,29.89,West,271,0.0,6.0,47,0.00,,---,0.00,0.00,VWS V14.01,2013-10-24 21:58:00,
2013-10-24 18:00:00,48.9,26.8,29.88,WSW,245,0.0,12.0,42,0.00,,---,0.00,44.00,VWS V14.01,2013-10-24 22:00:00,
2013-10-24 18:03:00,47.4,28.7,29.89,West,271,0.0,0.0,48,0.00,,---,0.00,0.00,VWS V14.01,2013-10-24 22:03:00,
2013-10-24 18:08:00,47.1,29.4,29.90,West,271,0.0,0.0,50,0.00,,---,0.00,0.00,VWS V14.01,2013-10-24 22:08:00,
2013-10-24 18:13:00,46.8,29.2,29.90,West,271,0.0,0.0,50,0.00,,---,0.00,0.00,VWS V14.01,2013-10-24 22:13:00,
2013-10-24 18:18:00,46.5,29.4,29.90,West,271,0.0,0.0,51,0.00,,---,0.00,0.00,VWS V14.01,2013-10-24 22:18:00,
2013-10-24 18:23:00,46.3,30.6,29.90,West,271,0.0,0.0,54,0.00,,---,0.00,0.00,VWS V14.01,2013-10-24 22:23:00,
2013-10-24 18:28:00,46.2,28.6,29.90,West,271,0.0,0.0,50,0.00,,---,0.00,0.00,VWS V14.01,2013-10-24 22:28:00,
2013-10-24 18:30:00,48.1,27.2,29.88,NW,316,6.0,10.0,44,0.00,,---,0.00,14.00,VWS V14.01,2013-10-24 22:30:00,
2013-10-24 18:33:00,46.2,29.6,29.90,West,271,0.0,0.0,52,0.00,,---,0.00,0.00,VWS V14.01,2013-10-24 22:33:00,
2013-10-24 18:38:00,46.1,29.5,29.91,West,271,0.0,0.0,52,0.00,,---,0.00,0.00,VWS V14.01,2013-10-24 22:38:00,
2013-10-24 18:43:00,46.0,29.4,29.91,West,271,0.0,0.0,52,0.00,,---,0.00,0.00,VWS V14.01,2013-10-24 22:43:00,
2013-10-24 18:48:00,45.8,30.1,29.91,West,271,0.0,0.0,54,0.00,,---,0.00,0.00,VWS V14.01,2013-10-24 22:48:00,
2013-10-24 18:53:00,45.8,28.7,29.91,West,271,2.0,2.0,51,0.00,,---,0.00,0.00,VWS V14.01,2013-10-24 22:53:00,
2013-10-24 18:58:00,46.0,27.9,29.91,West,271,0.0,2.0,49,0.00,,---,0.00,0.00,VWS V14.01,2013-10-24 22:58:00,
2013-10-24 19:00:00,47.4,28.2,29.89,West,271,0.0,6.0,47,0.00,,---,0.00,0.00,VWS V14.01,2013-10-24 23:00:00,
2013-10-24 19:03:00,46.1,28.5,29.92,West,271,0.0,0.0,50,0.00,,---,0.00,0.00,VWS V14.01,2013-10-24 23:03:00,
2013-10-24 19:08:00,46.1,28.5,29.91,West,271,0.0,0.0,50,0.00,,---,0.00,0.00,VWS V14.01,2013-10-24 23:08:00,
2013-10-24 19:13:00,46.2,28.6,29.92,West,271,0.0,1.0,50,0.00,,---,0.00,0.00,VWS V14.01,2013-10-24 23:13:00,
2013-10-24 19:18:00,46.2,27.6,29.92,West,271,3.0,4.0,48,0.00,,---,0.00,0.00,VWS V14.01,2013-10-24 23:18:00,
2013-10-24 19:23:00,46.2,28.1,29.92,West,273,0.0,5.0,49,0.00,,---,0.00,0.00,VWS V14.01,2013-10-24 23:23:00,
2013-10-24 19:28:00,46.0,27.9,29.92,West,273,0.0,5.0,49,0.00,,---,0.00,0.00,VWS V14.01,2013-10-24 23:28:00,
2013-10-24 19:30:00,46.2,28.6,29.90,West,271,0.0,0.0,50,0.00,,---,0.00,0.00,VWS V14.01,2013-10-24 23:30:00,
2013-10-24 19:33:00,45.8,28.2,29.92,West,278,0.0,0.0,50,0.00,,---,0.00,0.00,VWS V14.01,2013-10-24 23:33:00,
2013-10-24 19:38:00,45.5,28.4,29.92,West,278,0.0,0.0,51,0.00,,---,0.00,0.00,VWS V14.01,2013-10-24 23:38:00,
2013-10-24 19:43:00,45.3,28.2,29.93,West,278,0.0,0.0,51,0.00,,---,0.00,0.00,VWS V14.01,2013-10-24 23:43:00,
2013-10-24 19:48:00,45.1,28.5,29.93,West,278,0.0,0.0,52,0.00,,---,0.00,0.00,VWS V14.01,2013-10-24 23:48:00,
2013-10-24 19:53:00,44.9,28.4,29.93,West,278,0.0,0.0,52,0.00,,---,0.00,0.00,VWS V14.01,2013-10-24 23:53:00,
2013-10-24 19:58:00,44.8,28.7,29.93,West,278,0.0,0.0,53,0.00,,---,0.00,0.00,VWS V14.01,2013-10-24 23:58:00,
2013-10-24 20:00:00,46.1,28.5,29.92,West,271,0.0,2.0,50,0.00,,---,0.00,0.00,VWS V14.01,2013-10-25 00:00:00,
2013-10-24 20:03:00,44.6,28.1,29.93,West,278,0.0,2.0,52,0.00,,---,0.00,0.00,VWS V14.01,2013-10-25 00:03:00,
2013-10-24 20:08:00,44.6,28.5,29.93,West,278,0.0,2.0,53,0.00,,---,0.00,0.00,VWS V14.01,2013-10-25 00:08:00,
2013-10-24 20:13:00,44.5,29.4,29.93,West,278,0.0,2.0,55,0.00,,---,0.00,0.00,VWS V14.01,2013-10-25 00:13:00,
2013-10-24 20:18:00,44.3,28.3,29.93,West,278,0.0,2.0,53,0.00,,---,0.00,0.00,VWS V14.01,2013-10-25 00:18:00,
2013-10-24 20:23:00,44.3,28.3,29.93,West,278,0.0,2.0,53,0.00,,---,0.00,0.00,VWS V14.01,2013-10-25 00:23:00,
2013-10-24 20:28:00,44.2,28.6,29.93,West,278,0.0,2.0,54,0.00,,---,0.00,0.00,VWS V14.01,2013-10-25 00:28:00,
2013-10-24 20:30:00,45.8,27.7,29.92,West,278,0.0,5.0,49,0.00,,---,0.00,0.00,VWS V14.01,2013-10-25 00:30:00,
2013-10-24 20:33:00,44.0,28.4,29.93,West,278,0.0,0.0,54,0.00,,---,0.00,0.00,VWS V14.01,2013-10-25 00:33:00,
2013-10-24 20:38:00,43.6,30.2,29.93,West,278,0.0,0.0,59,0.00,,---,0.00,0.00,VWS V14.01,2013-10-25 00:38:00,
2013-10-24 20:43:00,43.0,29.7,29.94,West,278,0.0,0.0,59,0.00,,---,0.00,0.00,VWS V14.01,2013-10-25 00:43:00,
2013-10-24 20:48:00,42.6,28.9,29.94,West,278,0.0,0.0,58,0.00,,---,0.00,0.00,VWS V14.01,2013-10-25 00:48:00,
2013-10-24 20:53:00,42.5,28.4,29.94,West,278,0.0,2.0,57,0.00,,---,0.00,0.00,VWS V14.01,2013-10-25 00:53:00,
2013-10-24 20:58:00,42.5,28.8,29.94,West,278,0.0,2.0,58,0.00,,---,0.00,0.00,VWS V14.01,2013-10-25 00:58:00,
2013-10-24 21:00:00,44.7,28.6,29.93,West,278,0.0,0.0,53,0.00,,---,0.00,0.00,VWS V14.01,2013-10-25 01:00:00,
2013-10-24 21:03:00,42.3,28.6,29.94,West,278,0.0,0.0,58,0.00,,---,0.00,0.00,VWS V14.01,2013-10-25 01:03:00,
2013-10-24 21:08:00,42.1,29.6,29.94,West,277,0.0,0.0,61,0.00,,---,0.00,0.00,VWS V14.01,2013-10-25 01:08:00,
2013-10-24 21:13:00,41.6,29.2,29.94,West,277,0.0,2.0,61,0.00,,---,0.00,0.00,VWS V14.01,2013-10-25 01:13:00,
2013-10-24 21:18:00,41.3,28.9,29.94,West,278,0.0,2.0,61,0.00,,---,0.00,0.00,VWS V14.01,2013-10-25 01:18:00,
2013-10-24 21:23:00,40.9,29.7,29.94,West,278,0.0,2.0,64,0.00,,---,0.00,0.00,VWS V14.01,2013-10-25 01:23:00,
2013-10-24 21:28:00,40.8,29.6,29.94,West,278,0.0,2.0,64,0.00,,---,0.00,0.00,VWS V14.01,2013-10-25 01:28:00,
2013-10-24 21:30:00,44.1,28.5,29.93,West,278,0.0,2.0,54,0.00,,---,0.00,0.00,VWS V14.01,2013-10-25 01:30:00,
2013-10-24 21:33:00,40.9,29.3,29.95,West,278,0.0,0.0,63,0.00,,---,0.00,0.00,VWS V14.01,2013-10-25 01:33:00,
2013-10-24 21:38:00,41.1,29.9,29.95,West,278,0.0,0.0,64,0.00,,---,0.00,0.00,VWS V14.01,2013-10-25 01:38:00,
2013-10-24 21:43:00,41.4,29.4,29.95,West,278,0.0,0.0,62,0.00,,---,0.00,0.00,VWS V14.01,2013-10-25 01:43:00,
2013-10-24 21:48:00,41.5,29.5,29.95,West,278,0.0,1.0,62,0.00,,---,0.00,0.00,VWS V14.01,2013-10-25 01:48:00,
2013-10-24 21:53:00,41.7,29.7,29.95,West,278,0.0,1.0,62,0.00,,---,0.00,0.00,VWS V14.01,2013-10-25 01:53:00,
2013-10-24 21:58:00,41.8,30.1,29.95,West,278,0.0,1.0,63,0.00,,---,0.00,0.00,VWS V14.01,2013-10-25 01:58:00,
2013-10-24 22:00:00,42.4,28.7,29.94,West,278,0.0,2.0,58,0.00,,---,0.00,0.00,VWS V14.01,2013-10-25 02:00:00,
2013-10-24 22:03:00,41.8,29.8,29.96,West,278,0.0,0.0,62,0.00,,---,0.00,0.00,VWS V14.01,2013-10-25 02:03:00,
2013-10-24 22:08:00,41.9,30.2,29.96,West,278,0.0,0.0,63,0.00,,---,0.00,0.00,VWS V14.01,2013-10-25 02:08:00,
2013-10-24 22:13:00,41.7,29.7,29.96,West,278,0.0,0.0,62,0.00,,---,0.00,0.00,VWS V14.01,2013-10-25 02:13:00,
2013-10-24 22:18:00,41.6,29.6,29.96,West,277,0.0,2.0,62,0.00,,---,0.00,0.00,VWS V14.01,2013-10-25 02:18:00,
2013-10-24 22:23:00,41.5,29.5,29.96,West,278,0.0,2.0,62,0.00,,---,0.00,0.00,VWS V14.01,2013-10-25 02:23:00,
2013-10-24 22:28:00,41.5,29.5,29.96,West,278,0.0,2.0,62,0.00,,---,0.00,0.00,VWS V14.01,2013-10-25 02:28:00,
2013-10-24 22:30:00,40.9,29.3,29.95,West,278,0.0,2.0,63,0.00,,---,0.00,0.00,VWS V14.01,2013-10-25 02:30:00,
2013-10-24 22:33:00,41.5,29.5,29.96,West,278,0.0,3.0,62,0.00,,---,0.00,0.00,VWS V14.01,2013-10-25 02:33:00,
2013-10-24 22:38:00,41.5,29.9,29.96,West,278,0.0,3.0,63,0.00,,---,0.00,0.00,VWS V14.01,2013-10-25 02:38:00,
2013-10-24 22:43:00,41.4,30.1,29.97,West,278,2.0,3.0,64,0.00,,---,0.00,0.00,VWS V14.01,2013-10-25 02:43:00,
2013-10-24 22:48:00,41.3,30.1,29.97,West,278,0.0,3.0,64,0.00,,---,0.00,0.00,VWS V14.01,2013-10-25 02:48:00,
2013-10-24 22:53:00,41.2,30.0,29.97,West,278,0.0,3.0,64,0.00,,---,0.00,0.00,VWS V14.01,2013-10-25 02:53:00,
2013-10-24 22:58:00,41.2,30.0,29.97,West,278,0.0,3.0,64,0.00,,---,0.00,0.00,VWS V14.01,2013-10-25 02:58:00,
2013-10-24 23:00:00,41.8,29.8,29.95,West,278,0.0,1.0,62,0.00,,---,0.00,0.00,VWS V14.01,2013-10-25 03:00:00,
2013-10-24 23:03:00,41.3,29.7,29.97,West,277,0.0,0.0,63,0.00,,---,0.00,0.00,VWS V14.01,2013-10-25 03:03:00,
2013-10-24 23:08:00,41.4,30.1,29.97,West,278,0.0,0.0,64,0.00,,---,0.00,0.00,VWS V14.01,2013-10-25 03:08:00,
2013-10-24 23:13:00,41.3,31.2,29.97,West,278,0.0,0.0,67,0.00,,---,0.00,0.00,VWS V14.01,2013-10-25 03:13:00,
2013-10-24 23:18:00,41.2,31.5,29.97,West,278,0.0,0.0,68,0.00,,---,0.00,0.00,VWS V14.01,2013-10-25 03:18:00,
2013-10-24 23:23:00,41.0,32.0,29.97,West,278,0.0,0.0,70,0.00,,---,0.00,0.00,VWS V14.01,2013-10-25 03:23:00,
2013-10-24 23:28:00,40.9,31.9,29.97,West,278,0.0,0.0,70,0.00,,---,0.00,0.00,VWS V14.01,2013-10-25 03:28:00,
2013-10-24 23:30:00,41.5,29.5,29.96,West,277,0.0,2.0,62,0.00,,---,0.00,0.00,VWS V14.01,2013-10-25 03:30:00,
2013-10-24 23:33:00,40.6,32.0,29.97,West,278,0.0,0.0,71,0.00,,---,0.00,0.00,VWS V14.01,2013-10-25 03:33:00,
2013-10-24 23:38:00,40.5,31.5,29.98,West,278,0.0,0.0,70,0.00,,---,0.00,0.00,VWS V14.01,2013-10-25 03:38:00,
2013-10-24 23:43:00,40.3,31.0,29.98,West,278,0.0,0.0,69,0.00,,---,0.00,0.00,VWS V14.01,2013-10-25 03:43:00,
2013-10-24 23:48:00,40.3,30.6,29.98,West,278,0.0,0.0,68,0.00,,---,0.00,0.00,VWS V14.01,2013-10-25 03:48:00,
2013-10-24 23:53:00,40.4,31.0,29.98,West,278,0.0,1.0,69,0.00,,---,0.00,0.00,VWS V14.01,2013-10-25 03:53:00,
2013-10-24 23:58:00,40.4,30.3,29.98,West,278,0.0,1.0,67,0.00,,---,0.00,0.00,VWS V14.01,2013-10-25 03:58:00,